Home > Weather > Iqaluit > Past weeks

Flag for Canada Weather for the Past 2 Weeks in Iqaluit, Nunavut, Canada

Now
-17 °F

Partly cloudy.


Feels Like: -48 °F
Forecast: -13 / 2 °F
Wind: 29 mph from Northwest

Location: Iqaluit

Current Time: Feb 13, 2016 at 9:04:56 PM

Latest Report: Feb 13, 2016 at 8:00 PM


Visibility: 15 mi

Pressure: 29.93 "Hg

Humidity: 63%

Dew point: -26 °F

Location of IqaluitLocation

Historic Weather in Iqaluit — Graph

°F

Iqaluit Temperature Yesterday

Maximum temperature yesterday: 0 °F (at 10:00 AM)
Minimum temperature yesterday: -15 °F (at 11:00 PM)
Average temperature yesterday: -6 °F

High & Low Weather Summary for the Past Weeks

 TemperatureHumidityPressure
High9 °F (Feb 2, 6:00 AM)85% (Feb 11, 12:00 AM)30.27 "Hg (Feb 11, 12:00 AM)
Low-27 °F (Feb 7, 9:00 PM)49% (Feb 12, 8:00 AM)29.47 "Hg (Feb 2, 5:00 AM)
Average-13 °F70%29.88 "Hg
* Reported Jan 29 7:00 PM — Feb 13 7:00 PM, Iqaluit, Weather by CustomWeather, © 2016

Note: Actual official high and low records may vary slightly from our data, if they occured in-between our weather recording intervals... More about our weather records

Advertising

Iqaluit Weather History for the Previous 24 Hours

 ConditionsComfort  
Time TempWeatherWind HumidityBarometerVisibility
7:00 PM
Sat, Feb 13
-15 °FPassing clouds.25 mph63%29.93 "Hg15 mi
6:00 PM-15 °FPassing clouds.28 mph63%29.94 "Hg15 mi
5:00 PM-17 °FPassing clouds.28 mph69%29.94 "Hg15 mi
4:00 PM-17 °FPartly sunny.29 mph63%29.93 "Hg15 mi
3:00 PM-18 °FPartly sunny.26 mph69%29.93 "Hg15 mi
2:00 PM-17 °FPartly sunny.25 mph69%29.93 "Hg15 mi
1:00 PM-18 °FPartly sunny.24 mph69%29.93 "Hg15 mi
12:00 PM-17 °FPartly sunny.29 mph63%29.94 "Hg15 mi
11:00 AM-18 °FPartly sunny.28 mph69%29.93 "Hg15 mi
10:00 AM-18 °FPartly sunny.24 mph69%29.93 "Hg20 mi
9:00 AM-15 °FPartly sunny.28 mph63%29.91 "Hg20 mi
8:00 AM-18 °FPartly sunny.20 mph69%29.89 "Hg30 mi
7:00 AM-15 °FPassing clouds.22 mph69%29.89 "Hg15 mi
6:00 AM-17 °FLow level haze.25 mph69%29.88 "Hg10 mi
5:00 AM-17 °FPassing clouds.26 mph69%29.87 "Hg10 mi
4:00 AM-15 °FPassing clouds.29 mph69%29.87 "Hg10 mi
3:00 AM-15 °FPassing clouds.23 mph69%29.86 "Hg6 mi
2:00 AM-15 °FPassing clouds.25 mph76%29.86 "Hg15 mi
1:00 AM-15 °FPassing clouds.16 mph69%29.86 "Hg15 mi
12:00 AM-13 °FPassing clouds.17 mph63%29.86 "Hg15 mi
11:00 PM
Fri, Feb 12
-15 °FPassing clouds.22 mph69%29.87 "Hg15 mi
10:00 PM-13 °FLow level haze.20 mph63%29.87 "Hg15 mi
9:00 PM-13 °FLow level haze.18 mph63%29.88 "Hg15 mi
Weather by CustomWeather, © 2016

See weather overviewHow to use our weather pages